Change the Weather History Date:

Wednesday, December 18, 2013

  Actual Average (KMCE) Record (KMCE)
Temperature  
Mean Temperature 51 °F 44 °F  
Max Temperature 60 °F 53 °F 61 °F (2013)
Min Temperature 42 °F 36 °F 26 °F (2006)
Degree Days  
Heating Degree Days 14    
Month to date heating degree days  
Since 1 July heating degree days  
Cooling Degree Days 0    
Month to date cooling degree days  
Year to date cooling degree days  
Growing Degree Days 1 (Base 50)    
Moisture  
Dew Point 46 °F    
Average Humidity 91    
Maximum Humidity 100    
Minimum Humidity 52    
Precipitation  
Precipitation 0.00 in 0.06 in 0.36 in (2007)
Month to date precipitation 0.69  
Year to date precipitation 11.67  
Since 1 July precipitation 2.99  
Snow  
Snow 0.00 in - - ()
Month to date snowfall  
Since 1 July snowfall  
Snow Depth -    
Sea Level Pressure  
Sea Level Pressure 29.90 in    
Wind  
Wind Speed 1 mph (SW)    
Max Wind Speed 7 mph    
Max Gust Speed -    
Visibility 4 miles    
Events      
T = Trace of Precipitation, MM = Missing Value Source: NWS Daily Summary

Daily Weather History Graph

Daily Weather History Graph

Search for Another Location

Airport or City:

Trip Planner

Search our weather history database for the weather conditions in past years. The results will help you decide how hot, cold, wet, or windy it might be!

Date:

Astronomy

Dec. 18, 2013 Rise Set
Actual Time 7:11 AM PST 4:46 PM PST
Civil Twilight 6:42 AM PST 5:16 PM PST
Nautical Twilight 6:09 AM PST 5:48 PM PST
Astronomical Twilight 5:37 AM PST 6:20 PM PST
Moon 6:21 PM PST (12/18) 7:56 AM PST (12/18)
Length of Visible Light 10h 33m
Length of Day
9h 35m
Full, 98% of the Moon is Illuminated
Dec 18
Full
Dec 25
Last Quarter
Jan 1
New
Jan 7
First Quarter
Jan 15
Full

Hourly Weather History & Observations

Time (PST) Temp. Windchill Dew Point Humidity Pressure Visibility Wind Dir Wind Speed Gust Speed Precip Events Conditions
12:15 AM 46.4 °F - 46.4 °F 100% 30.04 in 3.0 mi Calm Calm - N/A   Clear
12:35 AM 46.4 °F - 46.4 °F 100% 30.04 in 3.0 mi Calm Calm - N/A   Clear
12:55 AM 46.4 °F - 46.4 °F 100% 30.04 in 3.0 mi Calm Calm - N/A   Clear
1:15 AM 46.4 °F 43.5 °F 46.4 °F 100% 30.03 in 3.0 mi ESE 5.8 mph - N/A   Clear
1:35 AM 46.4 °F - 46.4 °F 100% 30.04 in 3.0 mi Calm Calm - N/A   Clear
1:55 AM 44.6 °F - 44.6 °F 100% 30.04 in 3.0 mi Calm Calm - N/A   Clear
2:15 AM 46.4 °F 44.3 °F 46.4 °F 100% 30.02 in 3.0 mi SE 4.6 mph - N/A   Clear
2:35 AM 46.4 °F - 46.4 °F 100% 30.03 in 3.0 mi Calm Calm - N/A   Clear
2:55 AM 46.4 °F - 46.4 °F 100% 30.04 in 3.0 mi Calm Calm - N/A   Clear
3:15 AM 46.4 °F - 46.4 °F 100% 30.02 in 3.0 mi Calm Calm - N/A   Clear
3:35 AM 46.4 °F - 46.4 °F 100% 30.03 in 3.0 mi Calm Calm - N/A   Clear
3:55 AM 46.4 °F 43.5 °F 46.4 °F 100% 29.99 in 3.0 mi ESE 5.8 mph - N/A   Clear
4:15 AM 46.4 °F 42.9 °F 46.4 °F 100% 30.00 in 3.0 mi SSW 6.9 mph - N/A   Clear
4:35 AM 46.4 °F - 46.4 °F 100% 30.00 in 3.0 mi Calm Calm - N/A   Clear
4:55 AM 46.4 °F - 46.4 °F 100% 29.99 in 3.0 mi Calm Calm - N/A   Clear
5:15 AM 44.6 °F 43.1 °F 44.6 °F 100% 29.98 in 2.5 mi NW 3.5 mph - N/A   Clear
5:35 AM 42.8 °F - 42.8 °F 100% 29.99 in 2.5 mi Calm Calm - N/A   Clear
5:55 AM 42.8 °F - 42.8 °F 100% 29.99 in 2.0 mi Calm Calm - N/A   Clear
6:45 AM 42.8 °F 40.1 °F 42.8 °F 100% 29.97 in 1.0 mi Variable 4.6 mph - N/A   Overcast
8:45 AM 46.4 °F - 46.4 °F 100% 29.96 in 2.0 mi Calm Calm - N/A   Haze
9:45 AM 51.8 °F - 51.8 °F 100% 29.97 in 2.5 mi Calm Calm - N/A   Haze
10:45 AM 59.0 °F - 46.4 °F 63% 29.96 in 3.0 mi Calm Calm - N/A   Haze
11:45 AM 60.8 °F - 42.8 °F 52% 29.92 in 3.0 mi Calm Calm - N/A   Haze
1:48 PM 60.8 °F - 44.6 °F 55% 29.84 in 3.0 mi Calm Calm - N/A   Haze
2:45 PM 60.8 °F - 44.6 °F 55% 29.83 in 3.0 mi Calm Calm - N/A   Haze
3:45 PM 60.8 °F - 42.8 °F 52% 29.82 in 3.0 mi Calm Calm - N/A   Haze
4:45 PM 57.2 °F - 44.6 °F 63% 29.80 in 3.0 mi Calm Calm - N/A   Haze
5:45 PM 53.6 °F - 46.4 °F 77% 29.80 in 3.0 mi Calm Calm - N/A   Haze
6:45 PM 53.6 °F - 46.4 °F 77% 29.77 in 3.0 mi North - - N/A   Haze
7:45 PM 51.8 °F - 48.2 °F 88% 29.78 in 3.0 mi North - - N/A   Haze
8:15 PM 53.6 °F - 46.4 °F 77% 29.76 in 5.0 mi Calm Calm - N/A   Clear
8:35 PM 51.8 °F - 46.4 °F 82% 29.77 in 4.0 mi West 6.9 mph - N/A   Clear
8:45 PM 51.8 °F - 48.2 °F 88% 29.75 in 3.0 mi North - - N/A   Haze
8:55 PM 51.8 °F - 48.2 °F 88% 29.76 in 5.0 mi West 4.6 mph - N/A   Clear
9:15 PM 51.8 °F - 48.2 °F 88% 29.77 in 7.0 mi West 4.6 mph - N/A   Clear
9:35 PM 48.2 °F - 48.2 °F 100% 29.75 in 7.0 mi Calm Calm - N/A   Clear
9:55 PM 48.2 °F - 48.2 °F 100% 29.75 in 6.0 mi North - - N/A   Clear
10:15 PM 46.4 °F 43.5 °F 46.4 °F 100% 29.74 in 5.0 mi SW 5.8 mph - N/A   Clear
10:35 PM 48.2 °F - 48.2 °F 100% 29.75 in 7.0 mi WSW 4.6 mph - N/A   Clear
10:55 PM 48.2 °F - 48.2 °F 100% 29.75 in 7.0 mi Calm Calm - N/A   Clear
11:15 PM 44.6 °F - 44.6 °F 100% 29.76 in 4.0 mi Calm Calm - N/A   Clear
11:35 PM 42.8 °F - 42.8 °F 100% 29.75 in 4.0 mi Calm Calm - N/A   Clear
11:55 PM 42.8 °F - 42.8 °F 100% 29.74 in 3.0 mi Calm Calm - N/A   Clear